Location: Ward Pound Ridge Reservation
(41.2500°N, 73.6000°W)
Time: 14:04:40
(UTC-04:00)

Vanguard 1 - Visible Passes

Search period start: 20 July 2018 00:00
Search period end: 30 July 2018 00:00
Orbit: 650 x 3833 km, 34.2° (Epoch: 19 July)

Date Brightness Start Highest point End Pass type
(mag) Time Alt. Az. Time Alt. Az. Time Alt. Az.
20 Jul 10.6 04:10:21 21° SSW 04:11:25 22° SSW 04:16:03 10° SE visible
20 Jul 11.4 21:28:47 10° SSW 21:33:06 15° SSE 21:34:28 15° SE visible
21 Jul 11.0 04:30:49 15° SW 04:32:16 17° SSW 04:36:02 10° SSE visible
21 Jul 11.1 21:48:23 10° SSW 21:54:02 21° SSE 21:55:00 20° SSE visible
22 Jul 11.3 04:51:22 10° SW 04:53:07 12° SSW 04:55:05 10° S visible
22 Jul 10.8 22:08:35 10° SW 22:14:57 27° SSE 22:15:26 26° SSE visible
23 Jul 10.6 22:29:07 10° SW 22:35:46 32° S 22:35:46 32° S visible
24 Jul 10.5 22:49:54 10° WSW 22:55:59 36° S 22:55:59 36° S visible
25 Jul 11.5 20:48:37 10° SW 20:57:12 28° SSE 21:02:42 10° ESE visible
25 Jul 10.6 23:10:50 10° WSW 23:16:06 35° SSW 23:16:06 35° SSW visible
26 Jul 11.2 21:09:05 10° SW 21:18:11 34° SSE 21:23:25 12° ESE visible
26 Jul 10.9 23:31:52 10° WSW 23:36:09 30° SW 23:36:09 30° SW visible
27 Jul 10.9 21:29:50 10° SW 21:39:07 40° S 21:43:24 18° ESE visible
27 Jul 11.3 23:52:58 10° WSW 23:56:07 24° WSW 23:56:07 24° WSW visible
28 Jul 10.7 21:50:48 10° WSW 22:00:03 45° S 22:03:19 25° ESE visible
29 Jul 11.8 00:14:08 10° W 00:16:02 17° WSW 00:16:02 17° WSW visible
29 Jul 10.5 22:11:54 10° WSW 22:20:57 48° S 22:23:10 34° SE visible
